[[{"header":{"parameterUnit":"m.s-1","parameterCategory":1,"la1":30.2991,"la2":30.254,"lo1":-89.0895,"lo2":-89.0444,"dy":0.0017,"dx":0.0017,"nx":28,"ny":28,"refTime":"2024-05-08T03:00:00:Z","depth":0,"parameterNumber":2,"parameterNumberName":"U-component_of_WINDS"},"data":[0,0,0,0,0,0,0,0,0,0,0,0,0,0,0,0,0,0,0,0,0,0,0,0,0,0,0,0,0,0,0,0,0,0,0,0,0,0,0,0,0,0,0,0,0,0,0,0,0,0,0,0,0,0,0,0,0,0,-0.3188,-0.3188,0,-0.313,-0.313,-0.3129,-0.3119,-0.312,-0.312,-0.3121,-0.3062,-0.306,-0.3058,0,0,0,0,0,0,0,0,0,0,0,0,0,-0.3291,-0.3289,-0.3188,-0.3188,-0.3187,-0.3131,-0.313,-0.3129,-0.3119,-0.312,-0.3121,-0.3121,-0.3063,-0.306,-0.3058,0,0,0,0,0,0,0,0,0,0,0,0,0,-0.3241,-0.3289,-0.3188,-0.3175,-0.3173,-0.3131,-0.313,-0.3129,-0.3119,-0.312,-0.3121,-0.3121,-0.3063,-0.306,-0.3057,-0.3024,0,0,-0.3048,-0.3047,0,0,0,0,0,0,0,0,-0.3244,-0.3238,-0.3178,-0.3176,-0.3174,-0.3133,-0.3144,-0.3094,-0.3119,-0.314,-0.3121,-0.3122,-0.3085,-0.308,-0.3068,-0.3021,-0.3018,-0.3048,-0.3046,-0.3045,-0.3044,0,0,0,0,0,0,0,-0.3248,-0.324,-0.3165,-0.3177,-0.3175,-0.3173,-0.3166,-0.3135,-0.3109,-0.3138,-0.3137,-0.313,-0.3084,-0.3071,-0.3066,-0.3018,-0.3048,-0.3045,-0.3043,-0.3042,-0.2941,-0.294,0,0,0,0,0,0,-0.3253,-0.3243,-0.3167,-0.3164,-0.3212,-0.317,-0.3163,-0.3145,-0.3109,-0.3104,-0.313,-0.313,-0.3075,-0.307,-0.3064,-0.3022,-0.3045,-0.3042,-0.304,-0.2941,-0.294,-0.2939,0,0,0,0,0,0,-0.3256,-0.3247,-0.317,-0.3203,-0.3193,-0.3167,-0.3148,-0.3144,-0.313,-0.3103,-0.3098,-0.3121,-0.3076,-0.3068,-0.3034,-0.302,-0.304,-0.3038,-0.2942,-0.2941,-0.294,-0.2938,0,0,0,0,0,0,-0.3259,-0.3248,-0.3234,-0.3203,-0.3191,-0.314,-0.3147,-0.3142,-0.3125,-0.3125,-0.3093,-0.3089,-0.3076,-0.3038,-0.3031,-0.3016,-0.3035,-0.2944,-0.2942,-0.294,-0.2939,-0.2937,-0.2935,0,0,0,0,0,-0.3262,-0.3236,-0.3234,-0.3225,-0.3174,-0.3139,-0.3133,-0.3118,-0.3124,-0.3111,-0.3093,-0.309,-0.3023,-0.3035,-0.3026,-0.301,-0.2944,-0.2942,-0.294,-0.294,-0.2937,-0.2935,0,0,0,0,0,0,-0.3267,-0.3232,-0.3229,-0.3191,-0.3168,-0.3138,-0.312,-0.3116,-0.309,-0.3091,-0.3075,-0.3067,-0.3034,-0.3019,-0.3033,-0.2976,-0.2984,-0.298,-0.2987,-0.2984,-0.2982,-0.2986,-0.3033,0,0,0,0,0,-0.3263,-0.3238,-0.3209,-0.3179,-0.3167,-0.3146,-0.313,-0.3121,-0.3096,-0.3087,-0.3067,-0.3043,-0.3017,-0.3,-0.2974,-0.2937,-0.293,-0.2922,-0.292,-0.2918,-0.2915,-0.2895,-0.2891,-0.2933,-0.2933,-0.2933,0,0,-0.3256,-0.3234,-0.3219,-0.3179,-0.316,-0.3134,-0.3138,-0.311,-0.3091,-0.3082,-0.3048,-0.3033,-0.3006,-0.297,-0.2953,-0.2957,-0.2902,-0.2916,-0.2915,-0.2912,-0.2892,-0.2888,-0.2885,-0.2932,-0.2932,-0.2932,0,0,-0.323,-0.321,-0.3183,-0.3164,-0.3135,-0.3121,-0.3115,-0.3085,-0.3074,-0.304,-0.3033,-0.301,-0.2965,-0.2946,-0.293,-0.2897,-0.2893,-0.2889,-0.2877,-0.2858,-0.2854,-0.2851,-0.2839,-0.2835,-0.2886,-0.2886,-0.2886,0,-0.3224,-0.3184,-0.317,-0.3142,-0.3125,-0.3117,-0.3089,-0.3071,-0.3036,-0.3024,-0.3029,-0.2972,-0.2953,-0.2913,-0.2905,-0.2892,-0.2884,-0.2892,-0.2856,-0.2853,-0.285,-0.2838,-0.2833,-0.2886,-0.2886,-0.2886,-0.2886,0,-0.3179,-0.3152,-0.3133,-0.3099,-0.308,-0.3052,-0.3034,-0.3016,-0.3009,-0.2995,-0.296,-0.2937,-0.2907,-0.2897,-0.2889,-0.2855,-0.2858,-0.2859,-0.2867,-0.2846,-0.2834,-0.283,-0.2886,-0.2886,-0.2886,-0.2886,0,0,-0.3153,-0.3111,-0.3104,-0.3089,-0.3057,-0.3035,-0.3008,-0.2978,-0.2963,-0.2939,-0.2916,-0.2878,-0.2879,-0.2861,-0.2852,-0.2835,-0.281,-0.2838,-0.2837,-0.2833,-0.277,-0.2769,-0.2764,-0.2807,-0.2806,-0.2806,-0.2773,0,-0.3122,-0.3072,-0.3058,-0.3016,-0.2991,-0.2983,-0.2959,-0.2937,-0.2923,-0.29,-0.2884,-0.2858,-0.2862,-0.2851,-0.2833,-0.2816,-0.2797,-0.2819,-0.2785,-0.2784,-0.2791,-0.2758,-0.2757,-0.2726,-0.2768,-0.2767,-0.2767,0,-0.3079,-0.3054,-0.3009,-0.2981,-0.2969,-0.2948,-0.292,-0.2897,-0.2872,-0.2863,-0.2844,-0.2836,-0.2808,-0.2817,-0.2778,-0.2793,-0.2779,-0.2768,-0.2767,-0.2762,-0.2774,-0.2752,-0.2716,-0.2712,-0.276,-0.276,-0.2761,0,-0.3064,-0.3019,-0.2987,-0.2974,-0.2939,-0.2924,-0.291,-0.2885,-0.2868,-0.2844,-0.2832,-0.2805,-0.279,-0.2769,-0.2754,-0.2762,-0.2715,-0.2724,-0.2707,-0.2707,-0.2697,-0.2697,-0.2657,-0.2689,-0.2689,-0.2689,-0.2689,0,-0.3031,-0.3004,-0.2979,-0.2959,-0.2929,-0.2913,-0.2884,-0.2869,-0.2847,-0.2824,-0.2816,-0.2795,-0.2777,-0.2753,-0.2742,-0.271,-0.2704,-0.2696,-0.2693,-0.2696,-0.2697,-0.2686,-0.2687,-0.2688,-0.2688,-0.2688,-0.2688,0,-0.3009,-0.2991,-0.2955,-0.2925,-0.2917,-0.2896,-0.2871,-0.2851,-0.2838,-0.2809,-0.2801,-0.2779,-0.2751,-0.2734,-0.2699,-0.2691,-0.2656,-0.2654,-0.2664,-0.2663,-0.2647,-0.2648,-0.2598,-0.259,-0.2627,-0.2627,-0.2626,0,-0.2988,-0.2967,-0.2935,-0.2919,-0.2904,-0.2878,-0.286,-0.2845,-0.2827,-0.2797,-0.2781,-0.2752,-0.2728,-0.2684,-0.2665,-0.2638,-0.2635,-0.2619,-0.2631,-0.2635,-0.2634,-0.2635,-0.2633,-0.2617,-0.2617,-0.2616,-0.2616,0,-0.2954,-0.2946,-0.2921,-0.2893,-0.2872,-0.2849,-0.2826,-0.2814,-0.2794,-0.2775,-0.2746,-0.2727,-0.2691,-0.2663,-0.2634,-0.2619,-0.2614,-0.2613,-0.2607,-0.261,-0.2616,-0.2612,-0.2658,-0.2614,-0.2614,-0.2614,-0.2614,-0.2614,-0.2931,-0.2912,-0.2886,-0.2859,-0.284,-0.2819,-0.2799,-0.2782,-0.2758,-0.2727,-0.2719,-0.2689,-0.2665,-0.2626,-0.261,-0.2586,-0.2589,-0.2581,-0.2579,-0.2577,-0.2576,-0.2621,-0.2581,-0.2581,-0.2581,-0.2581,-0.2581,0,-0.2896,-0.2879,-0.2854,-0.2822,-0.28,-0.2798,-0.2773,-0.2755,-0.2728,-0.2706,-0.2682,-0.2649,-0.2621,-0.2601,-0.2572,-0.2557,-0.2554,-0.255,-0.2551,-0.2548,-0.2576,-0.2583,-0.2553,-0.2553,-0.2553,-0.2553,-0.2553,-0.2553,-0.2875,-0.2842,-0.2832,-0.279,-0.2773,-0.2743,-0.2728,-0.2709,-0.2691,-0.2654,-0.2631,-0.2618,-0.2596,-0.2566,-0.2541,-0.2536,-0.2526,-0.2522,-0.2516,-0.2543,-0.2546,-0.2549,-0.2555,-0.252,-0.252,-0.249,-0.249,-0.2489]},{"header":{"parameterUnit":"m.s-1","parameterCategory":1,"la1":30.2991,"la2":30.254,"lo1":-89.0895,"lo2":-89.0444,"dy":0.0017,"dx":0.0017,"nx":28,"ny":28,"refTime":"2024-05-08T03:00:00:Z","depth":0,"parameterNumber":3,"parameterNumberName":"V-component_of_WINDS"},"data":[0,0,0,0,0,0,0,0,0,0,0,0,0,0,0,0,0,0,0,0,0,0,0,0,0,0,0,0,0,0,0,0,0,0,0,0,0,0,0,0,0,0,0,0,0,0,0,0,0,0,0,0,0,0,0,0,0,0,5.9314,5.9315,0,5.9402,5.9403,5.9404,5.937,5.9368,5.9366,5.9364,5.9447,5.9451,5.9455,0,0,0,0,0,0,0,0,0,0,0,0,0,5.9112,5.9116,5.9314,5.9315,5.9316,5.9402,5.9403,5.9405,5.937,5.9368,5.9365,5.9363,5.9446,5.9451,5.9456,0,0,0,0,0,0,0,0,0,0,0,0,0,5.92,5.9117,5.9314,5.931,5.931,5.9402,5.9403,5.9405,5.9371,5.9367,5.9364,5.9362,5.9444,5.945,5.9456,5.9555,0,0,5.9475,5.9478,0,0,0,0,0,0,0,0,5.9195,5.9207,5.9309,5.931,5.9311,5.9372,5.9363,5.9455,5.9371,5.9347,5.9364,5.936,5.9424,5.9432,5.9455,5.9559,5.9563,5.9476,5.948,5.9482,5.9484,0,0,0,0,0,0,0,5.9189,5.9203,5.9349,5.9311,5.9312,5.9302,5.9311,5.938,5.9402,5.9349,5.9347,5.9358,5.9424,5.9449,5.9457,5.9564,5.9476,5.9481,5.9485,5.9487,5.9758,5.9761,0,0,0,0,0,0,5.9183,5.9198,5.9346,5.9351,5.9245,5.9308,5.9318,5.9355,5.9401,5.9405,5.9361,5.9356,5.944,5.9449,5.9459,5.9581,5.9482,5.9488,5.9491,5.9754,5.9758,5.9762,0,0,0,0,0,0,5.9179,5.9197,5.9342,5.9275,5.9292,5.9315,5.9357,5.9359,5.9384,5.941,5.9413,5.9383,5.9438,5.9451,5.9533,5.9583,5.9491,5.9496,5.975,5.9756,5.976,5.9823,0,0,0,0,0,0,5.9173,5.9196,5.9234,5.9276,5.9296,5.9416,5.936,5.9363,5.9395,5.939,5.9431,5.9435,5.9436,5.9524,5.9539,5.959,5.9501,5.9746,5.9753,5.9759,5.9817,5.983,5.9841,0,0,0,0,0,5.9166,5.9246,5.9236,5.9254,5.9345,5.9419,5.943,5.9433,5.9399,5.9438,5.9455,5.9433,5.9575,5.9533,5.9549,5.9603,5.9743,5.9751,5.9758,5.9811,5.9827,5.9841,0,0,0,0,0,0,5.9206,5.9251,5.9241,5.9337,5.9375,5.9413,5.9462,5.9449,5.9496,5.9489,5.9488,5.9497,5.9583,5.9601,5.9553,5.9703,5.9654,5.9665,5.9688,5.9704,5.9716,5.971,5.9506,0,0,0,0,0,5.9227,5.9285,5.932,5.9401,5.9421,5.9439,5.9471,5.947,5.9508,5.9523,5.9546,5.9583,5.9636,5.967,5.972,5.9819,5.9828,5.9864,5.9877,5.9886,5.9897,5.9953,5.997,5.9788,5.9788,5.9788,0,0,5.9268,5.93,5.9336,5.941,5.944,5.9499,5.9452,5.9516,5.956,5.9532,5.9613,5.9631,5.9672,5.9764,5.9805,5.9781,5.9949,5.9896,5.9904,5.9909,5.9963,5.998,5.9995,5.9793,5.9792,5.9791,0,0,5.9376,5.9405,5.9478,5.951,5.9556,5.9568,5.9585,5.9627,5.9639,5.972,5.9702,5.9753,5.9844,5.9875,5.9902,6.0026,6.0008,6.0042,6.0106,6.0161,6.0175,6.0188,6.0234,6.025,6.0051,6.0052,6.0052,0,5.9421,5.9512,5.9516,5.9583,5.9617,5.9598,5.9672,5.9701,5.976,5.9784,5.9756,5.9873,5.9898,5.9999,6.003,6.0052,6.0072,6.0037,6.0173,6.0186,6.0198,6.0242,6.0259,6.0056,6.0055,6.0055,6.0054,0,5.9567,5.963,5.9683,5.9745,5.9785,5.9854,5.9868,5.9907,5.9904,5.9918,6.0002,6.0033,6.0091,6.0114,6.0109,6.0215,6.0199,6.0173,6.0123,6.0219,6.026,6.0277,6.0061,6.006,6.0059,6.0058,0,0,5.97,5.9767,5.9786,5.9816,5.9867,5.9915,5.9985,6.0044,6.0079,6.012,6.0179,6.0259,6.0236,6.0267,6.0266,6.0314,6.0413,6.0282,6.0282,6.0307,6.0534,6.0555,6.0574,6.0401,6.0405,6.0407,6.0531,0,5.9813,5.9938,5.9945,6.0058,6.0118,6.0102,6.0163,6.02,6.0216,6.0268,6.0284,6.0342,6.0306,6.0325,6.0372,6.0391,6.0459,6.0382,6.0456,6.0458,6.0448,6.0595,6.0617,6.0732,6.0547,6.0549,6.0551,0,5.9961,6.0012,6.0132,6.0179,6.0204,6.0259,6.0316,6.0365,6.0408,6.0417,6.0454,6.0447,6.0518,6.0466,6.0565,6.0513,6.0543,6.0557,6.0562,6.0569,6.0511,6.0608,6.0769,6.0787,6.0576,6.0574,6.0573,0,6.0049,6.0147,6.0233,6.0258,6.0314,6.0354,6.0378,6.0418,6.0455,6.0504,6.0527,6.0582,6.0613,6.0656,6.0664,6.0625,6.0763,6.0711,6.0772,6.0772,6.0802,6.08,6.0971,6.082,6.082,6.0819,6.0819,0,6.0175,6.025,6.0274,6.0327,6.041,6.0417,6.0499,6.0521,6.0558,6.0614,6.0602,6.0654,6.0662,6.0716,6.0722,6.0804,6.0817,6.0826,6.0827,6.0828,6.0827,6.0848,6.0841,6.0824,6.0823,6.0822,6.0821,0,6.0288,6.0307,6.04,6.0447,6.046,6.052,6.0559,6.061,6.0625,6.0697,6.0714,6.0738,6.0802,6.0814,6.0888,6.0893,6.0991,6.0983,6.0978,6.0977,6.1038,6.1033,6.123,6.1257,6.1086,6.1088,6.1089,0,6.0368,6.0426,6.048,6.0519,6.0547,6.0608,6.0646,6.0656,6.0696,6.0752,6.0795,6.0859,6.091,6.1012,6.1035,6.1093,6.1087,6.1152,6.1095,6.1096,6.109,6.1088,6.1094,6.1163,6.1165,6.1166,6.1168,0,6.0509,6.0516,6.0574,6.0636,6.0683,6.0731,6.0776,6.0808,6.0824,6.0869,6.0936,6.0976,6.1055,6.1118,6.1176,6.1199,6.1187,6.1186,6.1203,6.1205,6.1201,6.1206,6.1009,6.1181,6.118,6.1179,6.1178,6.1177,6.0609,6.0661,6.0709,6.0774,6.081,6.0854,6.0905,6.0929,6.0986,6.1052,6.1054,6.1127,6.1171,6.1248,6.1276,6.1333,6.1312,6.1337,6.1343,6.135,6.1357,6.1191,6.1343,6.1343,6.1342,6.1342,6.1342,0,6.0751,6.0782,6.0842,6.0909,6.096,6.0946,6.0997,6.1041,6.1107,6.1149,6.1201,6.128,6.1342,6.1371,6.1432,6.1473,6.1469,6.1488,6.1486,6.1492,6.1371,6.1351,6.1491,6.1491,6.1491,6.1491,6.1491,6.1491,6.0831,6.092,6.0933,6.104,6.107,6.1145,6.1175,6.1216,6.1251,6.134,6.1392,6.1412,6.145,6.1515,6.1571,6.1578,6.1602,6.1625,6.163,6.1516,6.15,6.1486,6.1467,6.163,6.163,6.1747,6.1748,6.1749]}]]